DL1NER Weather Reports


time (UTC)temp
C
wind
direction
speed
KPH
gust
KPH
rain 1hr
cm
rain 24hr
cm
rain mn
cm
humidity
%
barometer
mb
20260510224019 16 234 3.2 8.0 0.00 0.00 0.00 59 1005.7
20260510223010 16 258 3.2 11.3 0.00 0.00 0.00 58 1005.7
20260510222010 16 225 1.6 6.4 0.00 0.00 0.00 58 1005.7
20260510221010 16 228 3.2 6.4 0.00 0.00 0.00 56 1005.8
20260510220009 16 226 4.8 11.3 0.00 0.00 0.00 55 1005.9
20260510215009 17 153 8.0 19.3 0.00 0.00 0.00 53 1006.1
20260510214011 17 153 8.0 19.3 0.00 0.00 0.00 53 1006.1
20260510213010 16 171 6.4 19.3 0.00 0.00 0.00 51 1006.1
20260510211010 16 85 1.6 4.8 0.00 0.00 0.00 51 1005.4
20260510210010 16 84 0.0 3.2 0.00 0.00 0.00 51 1005.4
20260510205009 17 84 0.0 3.2 0.00 0.00 0.00 51 1005.6
20260510204010 17 84 1.6 3.2 0.00 0.00 0.00 51 1005.6
20260510203009 17 84 1.6 4.8 0.00 0.00 0.00 50 1005.7
20260510202016 17 84 1.6 4.8 0.00 0.00 0.00 50 1005.7
20260510201009 17 84 3.2 8.0 0.00 0.00 0.00 50 1005.8
20260510200009 17 84 1.6 4.8 0.00 0.00 0.00 49 1005.8
20260510195009 18 84 0.0 3.2 0.00 0.00 0.00 49 1006.0
20260510194009 18 84 1.6 4.8 0.00 0.00 0.00 49 1006.0
20260510193008 18 84 1.6 4.8 0.00 0.00 0.00 48 1006.0
20260510192009 18 84 1.6 4.8 0.00 0.00 0.00 48 1006.0
20260510191013 18 84 1.6 4.8 0.00 0.00 0.00 48 1006.0
20260510190013 19 84 1.6 4.8 0.00 0.00 0.00 47 1005.8
20260510185013 19 84 3.2 6.4 0.00 0.00 0.00 46 1005.7
20260510184013 20 84 3.2 6.4 0.00 0.00 0.00 46 1005.5
20260510183014 20 84 6.4 12.9 0.00 0.00 0.00 44 1005.5
20260510182013 20 78 4.8 11.3 0.00 0.00 0.00 44 1005.5
20260510181013 20 53 4.8 11.3 0.00 0.00 0.00 44 1005.6
20260510180013 20 83 4.8 12.9 0.00 0.00 0.00 43 1005.6
20260510175013 20 85 3.2 8.0 0.00 0.00 0.00 45 1005.6
20260510174013 20 81 1.6 8.0 0.00 0.00 0.00 44 1005.7
20260510173013 20 88 1.6 4.8 0.00 0.00 0.00 44 1005.8
20260510172013 21 88 1.6 4.8 0.00 0.00 0.00 43 1005.8
20260510171013 21 88 3.2 6.4 0.00 0.00 0.00 42 1005.8
20260510170013 21 86 6.4 11.3 0.00 0.00 0.00 42 1006.0
20260510165013 21 103 4.8 12.9 0.00 0.00 0.00 41 1006.1
20260510164013 22 111 3.2 9.7 0.00 0.00 0.00 41 1006.1
20260510163013 22 114 3.2 9.7 0.00 0.00 0.00 40 1006.3
20260510162012 22 118 4.8 12.9 0.00 0.00 0.00 42 1006.4
20260510161012 22 146 3.2 8.0 0.00 0.00 0.00 43 1006.6
20260510160012 22 70 3.2 6.4 0.00 0.00 0.00 41 1006.6
20260510155012 23 108 4.8 6.4 0.00 0.00 0.00 38 1006.7
20260510154012 23 89 4.8 16.1 0.00 0.00 0.00 38 1006.9
20260510153012 23 80 4.8 12.9 0.00 0.00 0.00 36 1007.1
20260510152012 23 9 4.8 14.5 0.00 0.00 0.00 35 1007.2
20260510151012 24 84 4.8 12.9 0.00 0.00 0.00 35 1007.3
20260510150013 24 35 6.4 17.7 0.00 0.00 0.00 35 1007.4
20260510145012 25 119 1.6 6.4 0.00 0.00 0.00 35 1007.5
20260510144013 24 121 4.8 11.3 0.00 0.00 0.00 38 1007.7
20260510143012 24 93 6.4 14.5 0.00 0.00 0.00 35 1007.8
20260510142012 25 59 6.4 17.7 0.00 0.00 0.00 34 1007.8
20260510141012 24 145 6.4 14.5 0.00 0.00 0.00 36 1007.9
20260510140012 24 148 6.4 16.1 0.00 0.00 0.00 35 1008.0
20260510135012 23 74 4.8 17.7 0.00 0.00 0.00 41 1008.1
20260510134012 24 63 6.4 16.1 0.00 0.00 0.00 34 1008.4
20260510133011 25 34 4.8 16.1 0.00 0.00 0.00 36 1008.4
20260510132012 24 68 6.4 17.7 0.00 0.00 0.00 38 1008.4
20260510131012 24 113 6.4 14.5 0.00 0.00 0.00 36 1008.5
20260510130012 25 108 6.4 16.1 0.00 0.00 0.00 37 1008.6
20260510125012 25 71 6.4 16.1 0.00 0.00 0.00 35 1008.8
20260510124011 25 94 4.8 14.5 0.00 0.00 0.00 33 1009.0
20260510123012 25 88 4.8 16.1 0.00 0.00 0.00 39 1009.3
20260510121012 23 48 4.8 16.1 0.00 0.00 0.00 37 1009.5
20260510115011 23 38 4.8 16.1 0.00 0.00 0.00 38 1009.8
20260510114012 24 133 3.2 16.1 0.00 0.00 0.00 40 1010.0
20260510113012 24 119 8.0 17.7 0.00 0.00 0.00 37 1010.1
20260510112011 23 126 4.8 16.1 0.00 0.00 0.00 42 1010.2
20260510111011 23 108 4.8 12.9 0.00 0.00 0.00 39 1010.3
20260510110012 23 125 8.0 17.7 0.00 0.00 0.00 42 1010.6
20260510105011 23 86 8.0 22.5 0.00 0.00 0.00 39 1010.6
20260510103012 23 98 4.8 14.5 0.00 0.00 0.00 42 1010.9
20260510102011 22 113 6.4 14.5 0.00 0.00 0.00 45 1011.0
20260510101012 22 111 3.2 17.7 0.00 0.00 0.00 46 1011.1
20260510095012 22 129 6.4 19.3 0.00 0.00 0.00 49 1011.3
20260510094012 22 128 4.8 16.1 0.00 0.00 0.00 49 1011.4
20260510092011 21 134 6.4 16.1 0.00 0.00 0.00 49 1011.5
20260510091011 21 101 6.4 12.9 0.00 0.00 0.00 51 1011.6
20260510090011 20 88 8.0 16.1 0.00 0.00 0.00 50 1011.7
20260510085012 20 129 3.2 9.7 0.00 0.00 0.00 52 1011.9
20260510084011 20 84 3.2 11.3 0.00 0.00 0.00 53 1012.1
20260510083011 19 88 4.8 12.9 0.00 0.00 0.00 52 1012.2
20260510081011 18 80 6.4 14.5 0.00 0.00 0.00 64 1012.5
20260510074010 17 148 3.2 12.9 0.00 0.00 0.00 63 1012.6
20260510073010 16 80 3.2 8.0 0.00 0.00 0.00 66 1012.6
20260510072010 16 80 4.8 11.3 0.00 0.00 0.00 67 1012.7
20260510070008 14 115 4.8 11.3 0.00 0.00 0.00 74 1013.0
20260510065008 13 79 6.4 11.3 0.00 0.00 0.00 75 1013.2
20260510064008 13 79 6.4 11.3 0.00 0.00 0.00 75 1013.2
20260510063008 11 94 3.2 9.7 0.00 0.00 0.00 87 1013.2
20260510062008 11 94 3.2 9.7 0.00 0.00 0.00 87 1013.2
20260510061009 10 103 1.6 9.7 0.00 0.00 0.00 90 1013.1
20260510060009 10 83 3.2 11.3 0.00 0.00 0.00 92 1013.1
20260510055008 10 163 1.6 8.0 0.00 0.00 0.00 93 1013.2
20260510054012 9 240 0.0 3.2 0.00 0.00 0.00 93 1013.3
20260510053013 9 240 0.0 3.2 0.00 0.00 0.00 92 1013.4
20260510052012 8 240 0.0 1.6 0.00 0.00 0.00 92 1013.3
20260510051012 8 240 0.0 0.0 0.00 0.00 0.00 92 1013.4
20260510050012 7 240 0.0 0.0 0.00 0.00 0.00 92 1013.5
20260510044012 7 240 0.0 0.0 0.00 0.00 0.00 91 1013.8
20260510043012 7 240 0.0 0.0 0.00 0.00 0.00 91 1013.9
20260510042012 7 240 0.0 0.0 0.00 0.00 0.00 90 1013.8
20260510041012 7 240 0.0 0.0 0.00 0.00 0.00 89 1013.7
20260510035012 7 240 0.0 0.0 0.00 0.00 0.00 87 1013.6
20260510033012 7 240 0.0 0.0 0.00 0.00 0.00 87 1013.6
20260510032012 7 240 0.0 1.6 0.00 0.00 0.00 87 1013.7
20260510031011 7 166 0.0 0.0 0.00 0.00 0.00 86 1013.8
20260510030011 7 36 0.0 0.0 0.00 0.00 0.00 86 1013.9
20260510025011 7 36 0.0 0.0 0.00 0.00 0.00 86 1013.9
20260510024011 7 36 0.0 0.0 0.00 0.00 0.00 84 1014.0
20260510023011 7 36 0.0 0.0 0.00 0.00 0.00 83 1014.0
20260510022011 7 36 0.0 0.0 0.00 0.00 0.00 83 1014.1
20260510021011 8 36 0.0 0.0 0.00 0.00 0.00 83 1014.0
20260510020011 8 36 0.0 0.0 0.00 0.00 0.00 83 1014.1
20260510015011 8 36 0.0 0.0 0.00 0.00 0.00 83 1014.1
20260510014011 8 36 0.0 0.0 0.00 0.00 0.00 83 1014.1
20260510013011 8 36 0.0 3.2 0.00 0.00 0.00 82 1014.3
20260510012011 8 36 0.0 3.2 0.00 0.00 0.00 80 1014.3
20260510011011 8 36 0.0 1.6 0.00 0.00 0.00 79 1014.3
20260510010011 8 36 0.0 0.0 0.00 0.00 0.00 79 1014.3
20260510005011 9 36 0.0 3.2 0.00 0.00 0.00 79 1014.4
20260510004011 9 36 1.6 3.2 0.00 0.00 0.00 78 1014.5
20260510003011 9 36 0.0 4.8 0.00 0.00 0.00 78 1014.6
20260510002011 9 38 0.0 0.0 0.00 0.00 0.00 77 1014.7
20260510000011 10 38 0.0 0.0 0.00 0.00 0.00 74 1014.9
20260509235010 10 38 0.0 0.0 0.00 0.00 0.00 73 1014.9
20260509234011 10 38 0.0 0.0 0.00 0.00 0.00 73 1014.9
20260509233011 10 38 0.0 0.0 0.00 0.00 0.00 73 1014.9
20260509232010 10 38 0.0 0.0 0.00 0.00 0.00 72 1015.3
20260509231010 10 38 0.0 0.0 0.00 0.00 0.00 72 1015.5
20260509230010 11 38 0.0 0.0 0.00 0.00 0.00 72 1015.6
20260509225010 11 38 0.0 0.0 0.00 0.00 0.00 71 1015.7